| time (UTC) | temp C | wind direction | speed KPH | gust KPH | rain 1hr cm | rain 24hr cm | rain mn cm | humidity % | barometer mb |
| 20260506140054 | 11 | 143 | 4.8 | 16.1 | 0.33 | 0.64 | 0.64 | 96 | 1007.5 |
| 20260506134556 | 11 | 53 | 1.6 | 17.7 | 0.30 | 0.56 | 0.56 | 97 | 1008.0 |
| 20260506133055 | 11 | 195 | 0.0 | 4.8 | 0.25 | 0.48 | 0.48 | 96 | 1008.2 |
| 20260506131607 | 11 | 0 | 0.0 | 1.6 | 0.20 | 0.41 | 0.41 | 96 | 1008.5 |
| 20260506130057 | 11 | 0 | 0.0 | 3.2 | 0.13 | 0.30 | 0.30 | 95 | 1008.3 |
| 20260506124601 | 11 | 0 | 0.0 | 1.6 | 0.10 | 0.25 | 0.25 | 96 | 1007.8 |
| 20260506123112 | 11 | 0 | 0.0 | 1.6 | 0.13 | 0.23 | 0.23 | 96 | 1007.9 |
| 20260506121612 | 11 | 0 | 0.0 | 0.0 | 0.15 | 0.20 | 0.20 | 95 | 1008.0 |
| 20260506120058 | 11 | 0 | 0.0 | 0.0 | 0.15 | 0.18 | 0.18 | 95 | 1008.3 |
| 20260506114554 | 11 | 0 | 0.0 | 0.0 | 0.13 | 0.15 | 0.15 | 94 | 1008.2 |
| 20260506113056 | 11 | 241 | 0.0 | 0.0 | 0.08 | 0.10 | 0.10 | 92 | 1008.3 |
| 20260506111558 | 11 | 0 | 0.0 | 1.6 | 0.05 | 0.05 | 0.05 | 91 | 1008.5 |
| 20260506110103 | 12 | 0 | 0.0 | 3.2 | 0.03 | 0.03 | 0.03 | 88 | 1008.3 |
| 20260506104606 | 12 | 242 | 0.0 | 3.2 | 0.03 | 0.03 | 0.03 | 84 | 1008.0 |
| 20260506103103 | 13 | 0 | 0.0 | 3.2 | 0.03 | 0.03 | 0.03 | 79 | 1007.9 |
| 20260506101625 | 13 | 136 | 0.0 | 3.2 | 0.00 | 0.00 | 0.00 | 75 | 1007.8 |
| 20260506100059 | 14 | 184 | 1.6 | 11.3 | 0.00 | 0.00 | 0.00 | 70 | 1007.8 |
| 20260506094600 | 15 | 0 | 1.6 | 4.8 | 0.00 | 0.00 | 0.00 | 67 | 1007.8 |
| 20260506093100 | 15 | 207 | 1.6 | 9.7 | 0.00 | 0.00 | 0.00 | 65 | 1007.6 |
| 20260506091558 | 15 | 0 | 0.0 | 6.4 | 0.00 | 0.00 | 0.00 | 64 | 1007.8 |
| 20260506090109 | 15 | 0 | 1.6 | 11.3 | 0.00 | 0.00 | 0.00 | 63 | 1007.8 |
| 20260506084620 | 15 | 221 | 1.6 | 6.4 | 0.00 | 0.00 | 0.00 | 62 | 1007.9 |
| 20260506083058 | 15 | 156 | 0.0 | 9.7 | 0.00 | 0.00 | 0.00 | 62 | 1007.9 |
| 20260506081613 | 15 | 192 | 1.6 | 8.0 | 0.00 | 0.00 | 0.00 | 61 | 1007.7 |
| 20260506073101 | 15 | 155 | 3.2 | 11.3 | 0.00 | 0.00 | 0.00 | 63 | 1008.1 |
| 20260506071555 | 15 | 195 | 3.2 | 11.3 | 0.00 | 0.00 | 0.00 | 64 | 1008.3 |
| 20260506061559 | 11 | 0 | 0.0 | 0.0 | 0.00 | 0.00 | 0.00 | 96 | 1008.7 |
| 20260506050117 | 11 | 0 | 0.0 | 3.2 | 0.00 | 0.00 | 0.00 | 93 | 1009.4 |
| 20260506044555 | 11 | 0 | 0.0 | 3.2 | 0.00 | 0.00 | 0.00 | 90 | 1009.5 |
| 20260506043058 | 12 | 0 | 0.0 | 1.6 | 0.00 | 0.00 | 0.00 | 90 | 1009.6 |
| 20260506041604 | 12 | 296 | 0.0 | 1.6 | 0.00 | 0.00 | 0.00 | 88 | 1009.8 |
| 20260506040058 | 13 | 0 | 0.0 | 0.0 | 0.00 | 0.00 | 0.00 | 86 | 1009.8 |
| 20260506034556 | 13 | 0 | 0.0 | 4.8 | 0.00 | 0.00 | 0.00 | 83 | 1009.8 |
| 20260506033057 | 13 | 0 | 0.0 | 3.2 | 0.00 | 0.00 | 0.00 | 79 | 1009.7 |
| 20260506031554 | 13 | 263 | 0.0 | 3.2 | 0.00 | 0.00 | 0.00 | 79 | 1009.6 |
| 20260506030057 | 14 | 232 | 0.0 | 3.2 | 0.00 | 0.00 | 0.00 | 78 | 1009.6 |
| 20260506024603 | 15 | 0 | 1.6 | 4.8 | 0.00 | 0.00 | 0.00 | 78 | 1009.5 |
| 20260506023108 | 15 | 304 | 0.0 | 4.8 | 0.00 | 0.00 | 0.00 | 76 | 1009.6 |
| 20260506021557 | 16 | 304 | 0.0 | 4.8 | 0.00 | 0.00 | 0.00 | 73 | 1009.6 |
| 20260506014603 | 15 | 262 | 0.0 | 3.2 | 0.00 | 0.00 | 0.00 | 76 | 1009.4 |
| 20260506013103 | 15 | 0 | 0.0 | 3.2 | 0.00 | 0.00 | 0.00 | 75 | 1009.4 |
| 20260506011605 | 15 | 0 | 0.0 | 0.0 | 0.00 | 0.00 | 0.00 | 76 | 1009.1 |
| 20260506010057 | 15 | 0 | 0.0 | 1.6 | 0.00 | 0.00 | 0.00 | 76 | 1009.0 |
| 20260506004601 | 15 | 0 | 0.0 | 1.6 | 0.00 | 0.00 | 0.00 | 78 | 1008.9 |
| 20260506003058 | 15 | 0 | 0.0 | 3.2 | 0.00 | 0.00 | 0.00 | 80 | 1008.9 |
| 20260506001559 | 15 | 0 | 0.0 | 3.2 | 0.00 | 0.00 | 0.00 | 81 | 1009.1 |
| 20260505234555 | 16 | 0 | 0.0 | 1.6 | 0.00 | 0.00 | 0.00 | 81 | 1008.7 |
| 20260505233058 | 16 | 0 | 0.0 | 1.6 | 0.00 | 0.00 | 0.00 | 79 | 1008.8 |
| 20260505231557 | 16 | 0 | 0.0 | 3.2 | 0.00 | 0.00 | 0.00 | 79 | 1008.6 |
| 20260505230120 | 17 | 162 | 4.8 | 16.1 | 0.00 | 0.00 | 0.00 | 75 | 1008.6 |
| 20260505224555 | 16 | 136 | 0.0 | 4.8 | 0.00 | 0.00 | 0.00 | 72 | 1008.0 |
| 20260505223059 | 16 | 0 | 0.0 | 3.2 | 0.00 | 0.00 | 0.00 | 78 | 1008.1 |
| 20260505221602 | 16 | 0 | 0.0 | 4.8 | 0.00 | 0.00 | 0.00 | 77 | 1007.9 |
| 20260505220104 | 16 | 194 | 0.0 | 6.4 | 0.00 | 0.00 | 0.00 | 76 | 1008.0 |
| 20260505214557 | 17 | 178 | 1.6 | 4.8 | 0.00 | 0.00 | 0.00 | 77 | 1008.0 |
| 20260505213056 | 17 | 309 | 3.2 | 8.0 | 0.00 | 0.00 | 0.00 | 76 | 1007.9 |
| 20260505211604 | 18 | 221 | 3.2 | 9.7 | 0.00 | 0.00 | 0.00 | 69 | 1007.9 |
| 20260505210106 | 18 | 33 | 0.0 | 4.8 | 0.00 | 0.00 | 0.00 | 70 | 1007.6 |
| 20260505204603 | 18 | 57 | 0.0 | 8.0 | 0.00 | 0.00 | 0.00 | 71 | 1007.7 |
| 20260505203107 | 21 | 153 | 6.4 | 17.7 | 0.00 | 0.00 | 0.00 | 46 | 1007.3 |
| 20260505201557 | 22 | 261 | 4.8 | 25.7 | 0.00 | 0.00 | 0.00 | 42 | 1006.7 |
| 20260505200109 | 22 | 222 | 9.7 | 24.1 | 0.00 | 0.00 | 0.00 | 40 | 1006.6 |
| 20260505194556 | 23 | 211 | 11.3 | 24.1 | 0.00 | 0.00 | 0.00 | 39 | 1006.7 |
| 20260505193104 | 23 | 192 | 6.4 | 27.4 | 0.00 | 0.00 | 0.00 | 39 | 1007.0 |
| 20260505191607 | 22 | 202 | 9.7 | 27.4 | 0.00 | 0.00 | 0.00 | 42 | 1007.1 |
| 20260505190056 | 22 | 128 | 6.4 | 33.8 | 0.00 | 0.00 | 0.00 | 40 | 1007.5 |
| 20260505184559 | 23 | 259 | 6.4 | 20.9 | 0.00 | 0.00 | 0.00 | 40 | 1007.6 |
| 20260505183057 | 24 | 138 | 8.0 | 22.5 | 0.00 | 0.00 | 0.00 | 38 | 1007.5 |
| 20260505181558 | 24 | 137 | 6.4 | 22.5 | 0.00 | 0.00 | 0.00 | 40 | 1008.0 |
| 20260505180057 | 23 | 213 | 6.4 | 19.3 | 0.00 | 0.00 | 0.00 | 42 | 1008.3 |
| 20260505174602 | 23 | 235 | 4.8 | 19.3 | 0.00 | 0.00 | 0.00 | 45 | 1008.4 |
| 20260505173057 | 23 | 107 | 6.4 | 25.7 | 0.00 | 0.00 | 0.00 | 44 | 1008.3 |
| 20260505171556 | 23 | 187 | 4.8 | 20.9 | 0.00 | 0.00 | 0.00 | 44 | 1008.2 |
| 20260505170058 | 23 | 5 | 4.8 | 27.4 | 0.00 | 0.00 | 0.00 | 45 | 1008.1 |
| 20260505164600 | 23 | 225 | 6.4 | 33.8 | 0.00 | 0.00 | 0.00 | 45 | 1008.6 |
| 20260505163102 | 23 | 169 | 6.4 | 32.2 | 0.00 | 0.00 | 0.00 | 45 | 1008.7 |
| 20260505161607 | 23 | 176 | 6.4 | 19.3 | 0.00 | 0.00 | 0.00 | 44 | 1009.0 |
| 20260505153057 | 22 | 145 | 4.8 | 16.1 | 0.00 | 0.00 | 0.00 | 49 | 1009.2 |
| 20260505151556 | 22 | 213 | 6.4 | 17.7 | 0.00 | 0.00 | 0.00 | 49 | 1009.1 |
| 20260505150105 | 21 | 221 | 4.8 | 17.7 | 0.00 | 0.00 | 0.00 | 51 | 1009.0 |